Location: Siratepeler Tepesi
(39.1042°N, 32.0781°E)
Time: 05:07:55
(UTC+00:00)

Cosmos 1980 - Pass Details

Date: 11 April 2026
Orbit: 839 x 844 km, 71.0° (Epoch: 9 May)

Event Time Altitude Azimuth Distance (km) Brightness Sun altitude
Exits shadow 19:06:01 42° 36° (NE) 1,183 4.4 -28.7°
Drops below altitude 10° 19:09:42 10° 26° (NNE) 2,460 6.3 -29.2°
Sets 19:12:09 0° 25° (NNE) 3,398 7.1 -29.5°
